X

Important NEWS



New Hub Active

Miami is our new hub! Old members can request transfer via hr@dlxairways.net

Thank you very much and have nice flight.


Deluxe Airways.

X

Tours



Hello again, we created one nice test tour for all pilots to attend. also this is ment to be testing of our tour system

Available Tours

If you find some issues please inform us.

Thank you very much and have nice flight.


Deluxe Airways.

 METAR AND TAF INFORMATION
ArrayMETAR FOR LQSA
1503179 4 LQSA 250700Z VRB02KT 2000 R11/1300N BR NSC M03/M03 Q1025 NOSIG LQSA 2020-01-25T07:00:00Z 43.82 18.32 -3.0 -3.0 0 2 1.24 30.265747 TRUE BR IFR METAR 511.0 LQSA 250630Z VRB02KT 3500 BR NSC M03/M04 Q1025 NOSIG LQSA 2020-01-25T06:30:00Z 43.82 18.32 -3.0 -4.0 0 2 2.17 30.265747 TRUE BR IFR METAR 511.0 LQSA 250600Z VRB02KT 3000 BR NSC M03/M04 Q1025 NOSIG LQSA 2020-01-25T06:00:00Z 43.82 18.32 -3.0 -4.0 0 2 1.86 30.265747 TRUE BR IFR METAR 511.0 LQSA 250530Z VRB02KT 4000 BR NSC M03/M04 Q1024 NOSIG LQSA 2020-01-25T05:30:00Z 43.82 18.32 -3.0 -4.0 0 2 2.49 30.236221 TRUE BR IFR METAR 511.0

 AIRPORT MAP

 RUNWAY INFORMATION
Runway 12 Runway length 8666 ft Runway width 150 ft
Runway elevation 1643 ft Runway displaced threshold 333 ft Runway heading 117
Runway 30 Runway length 8666 ft Runway width 150 ft
Runway elevation 1690 ft Runway displaced threshold 1666 ft Runway heading 297

 AIRPORT FREQUENCIES
Type APP Name APP Frequency 136.45 MHZ
Type GCA Name GCA Frequency 119.4 MHZ
Type GND Name GND Frequency 121.9 MHZ
Type TWR Name TWR Frequency 118.25 MHZ

 AIRPORT NEAR NAVIGATION AIDS
Type NDB Name Sarajevo Frequency 436 KHZ
Type VOR-DME Name Sarajevo Frequency 116700 KHZ
Type NDB Name Kobiljaca Frequency 358 KHZ
Type VORTAC Name Sarajevo Frequency 108850 KHZ



Powered by Virtual Airlines Manager [v2.6.2]

Template code change by DeluxeAir